Time,TemperatureF,DewpointF,PressureIn,WindDirection,WindDirectionDegrees,WindSpeedMPH,WindSpeedGustMPH,Humidity,HourlyPrecipIn,Conditions,Clouds,dailyrainin,SoftwareType,DateUTC
2013-02-21 00:00:00,64.3,61.3,30.07,ENE,76,0.0,0.0,90,0.00,,,0.00,Wunderground v.1.15,2013-02-21 05:00:00,
2013-02-21 00:01:00,64.2,61.2,30.07,ENE,75,0.0,0.0,90,0.00,,,0.00,Wunderground v.1.15,2013-02-21 05:01:00,
2013-02-21 00:03:00,64.2,61.2,30.07,ENE,76,0.0,0.0,90,0.00,,,0.00,Wunderground v.1.15,2013-02-21 05:03:00,
2013-02-21 00:08:00,64.0,61.0,30.07,ENE,75,0.0,0.0,90,0.00,,,0.00,Wunderground v.1.15,2013-02-21 05:08:00,
2013-02-21 00:14:00,63.6,60.9,30.07,ENE,75,0.0,0.0,91,0.00,,,0.00,Wunderground v.1.15,2013-02-21 05:14:00,
2013-02-21 00:19:00,63.6,60.9,30.07,ENE,76,0.0,0.0,91,0.00,,,0.00,Wunderground v.1.15,2013-02-21 05:19:00,
2013-02-21 00:29:00,63.5,60.8,30.06,ENE,76,0.0,0.0,91,0.00,,,0.00,Wunderground v.1.15,2013-02-21 05:29:00,
2013-02-21 00:34:00,63.3,60.6,30.06,ENE,75,0.0,0.0,91,0.00,,,0.00,Wunderground v.1.15,2013-02-21 05:34:00,
2013-02-21 00:44:00,62.5,59.8,30.05,ENE,75,0.0,0.0,91,0.00,,,0.00,Wunderground v.1.15,2013-02-21 05:44:00,
2013-02-21 00:49:00,62.3,59.9,30.05,ENE,76,0.0,0.0,92,0.00,,,0.00,Wunderground v.1.15,2013-02-21 05:49:00,
2013-02-21 00:59:00,62.2,59.8,30.05,ENE,75,0.0,0.0,92,0.00,,,0.00,Wunderground v.1.15,2013-02-21 05:59:00,
2013-02-21 01:09:00,62.2,59.5,30.04,ENE,76,0.0,0.0,91,0.00,,,0.00,Wunderground v.1.15,2013-02-21 06:09:00,
2013-02-21 01:19:00,61.5,59.2,30.05,ENE,76,0.0,0.0,92,0.00,,,0.00,Wunderground v.1.15,2013-02-21 06:19:00,
2013-02-21 01:29:00,62.1,59.4,30.05,ENE,75,0.0,0.0,91,0.00,,,0.00,Wunderground v.1.15,2013-02-21 06:29:00,
2013-02-21 01:34:00,61.9,59.2,30.05,ENE,76,0.0,0.0,91,0.00,,,0.00,Wunderground v.1.15,2013-02-21 06:34:00,
2013-02-21 01:44:00,61.4,59.1,30.05,ENE,76,0.0,0.0,92,0.00,,,0.00,Wunderground v.1.15,2013-02-21 06:44:00,
2013-02-21 01:54:00,61.4,59.1,30.04,ENE,76,0.0,0.0,92,0.00,,,0.00,Wunderground v.1.15,2013-02-21 06:54:00,
2013-02-21 02:04:00,61.4,59.1,30.03,ENE,75,0.0,0.0,92,0.00,,,0.00,Wunderground v.1.15,2013-02-21 07:04:00,
2013-02-21 02:14:00,61.1,58.8,30.03,ENE,76,0.0,0.0,92,0.00,,,0.00,Wunderground v.1.15,2013-02-21 07:14:00,
2013-02-21 02:25:00,60.9,58.9,30.03,ENE,76,0.0,0.0,93,0.00,,,0.00,Wunderground v.1.15,2013-02-21 07:25:00,
2013-02-21 02:34:00,60.9,58.9,30.03,ENE,76,0.0,0.0,93,0.00,,,0.00,Wunderground v.1.15,2013-02-21 07:34:00,
2013-02-21 02:39:00,61.0,59.0,30.03,ENE,75,0.0,0.0,93,0.00,,,0.00,Wunderground v.1.15,2013-02-21 07:39:00,
2013-02-21 02:44:00,60.9,58.9,30.03,ENE,76,0.0,0.0,93,0.00,,,0.00,Wunderground v.1.15,2013-02-21 07:44:00,
2013-02-21 02:50:00,61.1,59.1,30.03,ENE,76,0.0,0.0,93,0.00,,,0.00,Wunderground v.1.15,2013-02-21 07:50:00,
2013-02-21 02:58:00,61.0,59.0,30.03,ENE,75,0.0,0.0,93,0.00,,,0.00,Wunderground v.1.15,2013-02-21 07:58:00,
2013-02-21 03:03:00,61.0,59.0,30.02,ENE,76,0.0,0.0,93,0.00,,,0.00,Wunderground v.1.15,2013-02-21 08:03:00,
2013-02-21 03:08:00,61.2,59.2,30.03,ENE,76,0.0,0.0,93,0.00,,,0.00,Wunderground v.1.15,2013-02-21 08:08:00,
2013-02-21 03:14:00,61.2,59.2,30.03,ENE,76,0.0,0.0,93,0.00,,,0.00,Wunderground v.1.15,2013-02-21 08:14:00,
2013-02-21 03:19:00,61.1,59.1,30.03,ENE,75,0.0,0.0,93,0.00,,,0.00,Wunderground v.1.15,2013-02-21 08:19:00,
2013-02-21 03:36:00,61.0,59.0,30.03,ENE,76,0.0,0.0,93,0.00,,,0.00,Wunderground v.1.15,2013-02-21 08:36:00,
2013-02-21 03:43:00,60.7,58.7,30.03,ENE,75,0.0,0.0,93,0.00,,,0.00,Wunderground v.1.15,2013-02-21 08:43:00,
2013-02-21 03:49:00,60.8,58.8,30.03,ENE,76,0.0,0.0,93,0.00,,,0.00,Wunderground v.1.15,2013-02-21 08:49:00,
2013-02-21 03:58:00,60.7,58.7,30.03,ENE,75,0.0,0.0,93,0.00,,,0.00,Wunderground v.1.15,2013-02-21 08:58:00,
2013-02-21 04:04:00,60.7,58.7,30.03,ENE,76,0.0,0.0,93,0.00,,,0.00,Wunderground v.1.15,2013-02-21 09:04:00,
2013-02-21 04:13:00,60.5,58.5,30.03,ENE,76,0.0,0.0,93,0.00,,,0.00,Wunderground v.1.15,2013-02-21 09:13:00,
2013-02-21 04:19:00,60.5,58.5,30.03,ENE,76,0.0,0.0,93,0.00,,,0.00,Wunderground v.1.15,2013-02-21 09:19:00,
2013-02-21 04:28:00,60.4,58.4,30.03,ENE,76,0.0,0.0,93,0.00,,,0.00,Wunderground v.1.15,2013-02-21 09:28:00,
2013-02-21 04:34:00,60.3,58.3,30.03,ENE,76,0.0,0.0,93,0.00,,,0.00,Wunderground v.1.15,2013-02-21 09:34:00,
2013-02-21 04:43:00,60.3,58.3,30.04,ENE,76,0.0,0.0,93,0.00,,,0.00,Wunderground v.1.15,2013-02-21 09:43:00,
2013-02-21 04:48:00,60.2,58.2,30.04,ENE,76,0.0,0.0,93,0.00,,,0.00,Wunderground v.1.15,2013-02-21 09:48:00,
2013-02-21 04:54:00,60.3,58.3,30.04,ENE,75,0.0,0.0,93,0.00,,,0.00,Wunderground v.1.15,2013-02-21 09:54:00,
2013-02-21 05:04:00,60.4,58.4,30.04,ENE,76,0.0,0.0,93,0.00,,,0.00,Wunderground v.1.15,2013-02-21 10:04:00,
2013-02-21 05:09:00,60.4,58.4,30.04,ENE,76,0.0,0.0,93,0.00,,,0.00,Wunderground v.1.15,2013-02-21 10:09:00,
2013-02-21 05:14:00,60.5,58.8,30.04,ENE,76,0.0,0.0,94,0.00,,,0.00,Wunderground v.1.15,2013-02-21 10:14:00,
2013-02-21 05:23:00,60.7,59.0,30.04,ENE,75,0.0,0.0,94,0.00,,,0.00,Wunderground v.1.15,2013-02-21 10:23:00,
2013-02-21 05:29:00,60.8,59.1,30.04,ENE,76,0.0,0.0,94,0.00,,,0.00,Wunderground v.1.15,2013-02-21 10:29:00,
2013-02-21 05:39:00,60.8,59.1,30.04,ENE,76,0.0,0.0,94,0.00,,,0.00,Wunderground v.1.15,2013-02-21 10:39:00,
2013-02-21 05:54:00,60.9,59.2,30.05,ENE,76,0.0,0.0,94,0.00,,,0.00,Wunderground v.1.15,2013-02-21 10:54:00,
2013-02-21 06:03:00,61.0,59.3,30.05,ENE,75,0.0,0.0,94,0.00,,,0.00,Wunderground v.1.15,2013-02-21 11:03:00,
2013-02-21 06:10:00,61.1,59.4,30.05,ENE,76,0.0,0.0,94,0.00,,,0.00,Wunderground v.1.15,2013-02-21 11:10:00,
2013-02-21 06:20:00,61.1,59.4,30.06,ENE,76,0.0,0.0,94,0.00,,,0.00,Wunderground v.1.15,2013-02-21 11:20:00,
2013-02-21 06:26:00,61.2,59.5,30.06,ENE,76,0.0,0.0,94,0.00,,,0.00,Wunderground v.1.15,2013-02-21 11:26:00,
2013-02-21 06:33:00,61.2,59.2,30.06,ENE,75,0.0,0.0,93,0.00,,,0.00,Wunderground v.1.15,2013-02-21 11:33:00,
2013-02-21 06:39:00,61.1,59.1,30.06,ENE,76,0.0,0.0,93,0.00,,,0.00,Wunderground v.1.15,2013-02-21 11:39:00,
2013-02-21 06:47:00,61.2,59.5,30.07,ENE,76,0.0,0.0,94,0.00,,,0.00,Wunderground v.1.15,2013-02-21 11:47:00,
2013-02-21 06:54:00,61.2,59.2,30.07,ENE,76,0.0,0.0,93,0.00,,,0.00,Wunderground v.1.15,2013-02-21 11:54:00,
2013-02-21 06:59:00,61.2,59.2,30.07,ENE,76,0.0,0.0,93,0.00,,,0.00,Wunderground v.1.15,2013-02-21 11:59:00,
2013-02-21 07:08:00,61.0,59.0,30.06,ENE,76,0.0,0.0,93,0.00,,,0.00,Wunderground v.1.15,2013-02-21 12:08:00,
2013-02-21 07:15:00,60.9,58.9,30.06,ENE,75,0.0,0.0,93,0.00,,,0.00,Wunderground v.1.15,2013-02-21 12:15:00,
2013-02-21 07:25:00,60.8,59.1,30.06,ENE,76,0.0,0.0,94,0.00,,,0.00,Wunderground v.1.15,2013-02-21 12:25:00,
2013-02-21 07:33:00,61.1,59.4,30.06,ENE,76,0.0,0.0,94,0.00,,,0.00,Wunderground v.1.15,2013-02-21 12:33:00,
2013-02-21 07:38:00,61.6,59.9,30.06,ENE,76,0.0,0.0,94,0.00,,,0.00,Wunderground v.1.15,2013-02-21 12:38:00,
2013-02-21 07:44:00,62.2,60.8,30.06,ENE,76,0.0,0.0,95,0.00,,,0.00,Wunderground v.1.15,2013-02-21 12:44:00,
2013-02-21 07:54:00,63.1,61.3,30.08,ENE,76,0.0,0.0,94,0.00,,,0.00,Wunderground v.1.15,2013-02-21 12:54:00,
2013-02-21 08:05:00,63.9,62.1,30.08,ENE,76,0.0,0.0,94,0.00,,,0.00,Wunderground v.1.15,2013-02-21 13:05:00,
2013-02-21 08:14:00,65.1,63.3,30.08,ENE,76,0.0,0.0,94,0.00,,,0.00,Wunderground v.1.15,2013-02-21 13:14:00,
2013-02-21 08:19:00,65.8,63.7,30.08,ENE,76,0.0,1.0,93,0.00,,,0.00,Wunderground v.1.15,2013-02-21 13:19:00,
2013-02-21 08:29:00,67.7,64.7,30.09,ENE,76,0.0,0.0,90,0.00,,,0.00,Wunderground v.1.15,2013-02-21 13:29:00,
2013-02-21 08:38:00,69.7,66.3,30.10,ENE,76,0.0,0.0,89,0.00,,,0.00,Wunderground v.1.15,2013-02-21 13:38:00,
2013-02-21 08:44:00,70.7,67.0,30.09,ENE,76,0.0,3.0,88,0.00,,,0.00,Wunderground v.1.15,2013-02-21 13:44:00,
2013-02-21 08:49:00,71.5,67.4,30.09,ENE,76,0.0,0.0,87,0.00,,,0.00,Wunderground v.1.15,2013-02-21 13:49:00,
2013-02-21 08:59:00,72.9,68.1,30.10,ENE,76,0.0,0.0,85,0.00,,,0.00,Wunderground v.1.15,2013-02-21 13:59:00,
2013-02-21 09:04:00,73.5,68.4,30.10,ENE,76,0.0,0.0,84,0.00,,,0.00,Wunderground v.1.15,2013-02-21 14:04:00,
2013-02-21 09:19:00,75.7,69.1,30.10,NE,48,0.0,0.0,80,0.00,,,0.00,Wunderground v.1.15,2013-02-21 14:19:00,
2013-02-21 09:29:00,76.7,68.9,30.10,NE,48,1.0,1.0,77,0.00,,,0.00,Wunderground v.1.15,2013-02-21 14:29:00,
2013-02-21 09:34:00,77.1,68.6,30.10,NE,48,0.0,1.0,75,0.00,,,0.00,Wunderground v.1.15,2013-02-21 14:34:00,
2013-02-21 09:44:00,78.2,68.8,30.11,NE,48,0.0,0.0,73,0.00,,,0.00,Wunderground v.1.15,2013-02-21 14:44:00,
2013-02-21 09:54:00,79.1,68.1,30.11,NE,49,0.0,0.0,69,0.00,,,0.00,Wunderground v.1.15,2013-02-21 14:54:00,
2013-02-21 09:59:00,79.3,68.2,30.11,NE,49,0.0,0.0,69,0.00,,,0.00,Wunderground v.1.15,2013-02-21 14:59:00,
2013-02-21 10:04:00,79.6,68.5,30.11,NE,49,0.0,0.0,69,0.00,,,0.00,Wunderground v.1.15,2013-02-21 15:04:00,
2013-02-21 10:09:00,79.8,67.4,30.10,East,93,0.0,0.0,66,0.00,,,0.00,Wunderground v.1.15,2013-02-21 15:09:00,
2013-02-21 10:19:00,79.7,67.8,30.11,East,92,0.0,0.0,67,0.00,,,0.00,Wunderground v.1.15,2013-02-21 15:19:00,
2013-02-21 10:24:00,80.0,68.1,30.10,East,92,0.0,0.0,67,0.00,,,0.00,Wunderground v.1.15,2013-02-21 15:24:00,
2013-02-21 10:29:00,80.0,68.1,30.10,East,101,1.0,1.0,67,0.00,,,0.00,Wunderground v.1.15,2013-02-21 15:29:00,
2013-02-21 10:34:00,80.0,67.6,30.11,ESE,118,1.0,4.0,66,0.00,,,0.00,Wunderground v.1.15,2013-02-21 15:34:00,
2013-02-21 10:44:00,80.1,67.7,30.11,ESE,112,1.0,1.0,66,0.00,,,0.00,Wunderground v.1.15,2013-02-21 15:44:00,
2013-02-21 10:54:00,79.9,67.1,30.10,ENE,71,2.0,6.0,65,0.00,,,0.00,Wunderground v.1.15,2013-02-21 15:54:00,
2013-02-21 10:59:00,79.8,67.0,30.10,East,97,2.0,5.0,65,0.00,,,0.00,Wunderground v.1.15,2013-02-21 15:59:00,
2013-02-21 11:04:00,79.6,66.8,30.10,East,97,3.0,3.0,65,0.00,,,0.00,Wunderground v.1.15,2013-02-21 16:04:00,
2013-02-21 11:09:00,79.7,66.9,30.10,ESE,105,2.0,3.0,65,0.00,,,0.00,Wunderground v.1.15,2013-02-21 16:09:00,
2013-02-21 11:14:00,79.2,66.9,30.10,ESE,121,2.0,5.0,66,0.00,,,0.00,Wunderground v.1.15,2013-02-21 16:14:00,
2013-02-21 11:24:00,78.7,66.4,30.10,SE,133,2.0,5.0,66,0.00,,,0.00,Wunderground v.1.15,2013-02-21 16:24:00,
2013-02-21 11:29:00,79.1,66.8,30.10,East,99,2.0,3.0,66,0.00,,,0.00,Wunderground v.1.15,2013-02-21 16:29:00,
2013-02-21 11:34:00,79.5,66.7,30.10,ESE,115,2.0,5.0,65,0.00,,,0.00,Wunderground v.1.15,2013-02-21 16:34:00,
2013-02-21 11:39:00,79.8,66.1,30.10,ESE,109,2.0,5.0,63,0.00,,,0.00,Wunderground v.1.15,2013-02-21 16:39:00,
2013-02-21 11:44:00,79.9,66.2,30.09,ESE,116,3.0,3.0,63,0.00,,,0.00,Wunderground v.1.15,2013-02-21 16:44:00,
2013-02-21 11:54:00,79.9,67.5,30.09,ESE,113,2.0,3.0,66,0.00,,,0.00,Wunderground v.1.15,2013-02-21 16:54:00,
2013-02-21 11:59:00,80.0,66.7,30.09,East,88,3.0,3.0,64,0.00,,,0.00,Wunderground v.1.15,2013-02-21 16:59:00,
2013-02-21 12:04:00,80.1,66.4,30.09,ESE,111,2.0,2.0,63,0.00,,,0.00,Wunderground v.1.15,2013-02-21 17:04:00,
2013-02-21 12:09:00,80.0,66.7,30.08,SSE,162,3.0,3.0,64,0.00,,,0.00,Wunderground v.1.15,2013-02-21 17:09:00,
2013-02-21 12:19:00,80.0,65.8,30.08,ESE,105,3.0,5.0,62,0.00,,,0.00,Wunderground v.1.15,2013-02-21 17:19:00,
2013-02-21 12:24:00,79.9,66.2,30.08,ESE,104,4.0,4.0,63,0.00,,,0.00,Wunderground v.1.15,2013-02-21 17:24:00,
2013-02-21 12:29:00,80.1,66.4,30.07,ESE,112,4.0,4.0,63,0.00,,,0.00,Wunderground v.1.15,2013-02-21 17:29:00,
2013-02-21 12:34:00,80.2,66.0,30.07,East,94,3.0,4.0,62,0.00,,,0.00,Wunderground v.1.15,2013-02-21 17:34:00,
2013-02-21 12:44:00,79.9,66.6,30.07,ENE,57,3.0,3.0,64,0.00,,,0.00,Wunderground v.1.15,2013-02-21 17:44:00,
2013-02-21 12:49:00,80.2,66.9,30.07,East,90,3.0,4.0,64,0.00,,,0.00,Wunderground v.1.15,2013-02-21 17:49:00,
2013-02-21 12:59:00,80.1,66.4,30.06,SE,130,4.0,8.0,63,0.00,,,0.00,Wunderground v.1.15,2013-02-21 17:59:00,
2013-02-21 13:04:00,79.7,66.0,30.05,SSE,164,4.0,5.0,63,0.00,,,0.00,Wunderground v.1.15,2013-02-21 18:04:00,
2013-02-21 13:14:00,79.5,66.3,30.05,ESE,103,4.0,4.0,64,0.00,,,0.00,Wunderground v.1.15,2013-02-21 18:14:00,
2013-02-21 13:19:00,80.1,66.8,30.05,East,84,4.0,5.0,64,0.00,,,0.00,Wunderground v.1.15,2013-02-21 18:19:00,
2013-02-21 13:28:00,80.7,66.5,30.05,ESE,113,4.0,6.0,62,0.00,,,0.00,Wunderground v.1.15,2013-02-21 18:28:00,
2013-02-21 13:34:00,80.9,66.7,30.04,ESE,113,3.0,3.0,62,0.00,,,0.00,Wunderground v.1.15,2013-02-21 18:34:00,
2013-02-21 13:39:00,80.7,66.5,30.04,ESE,102,3.0,3.0,62,0.00,,,0.00,Wunderground v.1.15,2013-02-21 18:39:00,
2013-02-21 13:44:00,80.3,66.1,30.04,East,100,4.0,5.0,62,0.00,,,0.00,Wunderground v.1.15,2013-02-21 18:44:00,
2013-02-21 13:54:00,79.4,66.6,30.04,East,98,4.0,4.0,65,0.00,,,0.00,Wunderground v.1.15,2013-02-21 18:54:00,
2013-02-21 13:59:00,79.8,66.5,30.04,ESE,105,4.0,4.0,64,0.00,,,0.00,Wunderground v.1.15,2013-02-21 18:59:00,
2013-02-21 14:04:00,80.0,66.7,30.04,ESE,123,4.0,5.0,64,0.00,,,0.00,Wunderground v.1.15,2013-02-21 19:04:00,
2013-02-21 14:09:00,79.8,66.5,30.04,ESE,109,4.0,6.0,64,0.00,,,0.00,Wunderground v.1.15,2013-02-21 19:09:00,
2013-02-21 14:19:00,79.0,65.8,30.04,East,99,5.0,8.0,64,0.00,,,0.00,Wunderground v.1.15,2013-02-21 19:19:00,
2013-02-21 14:29:00,78.4,66.1,30.03,East,101,6.0,10.0,66,0.00,,,0.00,Wunderground v.1.15,2013-02-21 19:29:00,
2013-02-21 14:34:00,78.7,65.9,30.03,East,98,5.0,6.0,65,0.00,,,0.00,Wunderground v.1.15,2013-02-21 19:34:00,
2013-02-21 14:44:00,78.7,66.4,30.03,SE,130,4.0,5.0,66,0.00,,,0.00,Wunderground v.1.15,2013-02-21 19:44:00,
2013-02-21 14:54:00,78.6,66.3,30.03,ESE,116,4.0,4.0,66,0.00,,,0.00,Wunderground v.1.15,2013-02-21 19:54:00,
2013-02-21 15:04:00,78.9,66.6,30.02,SSE,162,4.0,5.0,66,0.00,,,0.00,Wunderground v.1.15,2013-02-21 20:04:00,
2013-02-21 15:09:00,78.8,66.9,30.02,SE,140,4.0,5.0,67,0.00,,,0.00,Wunderground v.1.15,2013-02-21 20:09:00,
2013-02-21 15:19:00,78.2,65.9,30.02,ESE,118,4.0,5.0,66,0.00,,,0.00,Wunderground v.1.15,2013-02-21 20:19:00,
2013-02-21 15:24:00,77.9,66.5,30.02,ESE,109,5.0,5.0,68,0.00,,,0.00,Wunderground v.1.15,2013-02-21 20:24:00,
2013-02-21 15:29:00,78.0,66.2,30.02,ESE,105,5.0,6.0,67,0.00,,,0.00,Wunderground v.1.15,2013-02-21 20:29:00,
2013-02-21 15:39:00,77.6,65.8,30.02,SSE,150,5.0,5.0,67,0.00,,,0.00,Wunderground v.1.15,2013-02-21 20:39:00,
2013-02-21 15:49:00,77.4,66.0,30.02,ESE,111,5.0,5.0,68,0.00,,,0.00,Wunderground v.1.15,2013-02-21 20:49:00,
2013-02-21 15:59:00,77.7,65.9,30.02,ESE,115,4.0,8.0,67,0.00,,,0.00,Wunderground v.1.15,2013-02-21 20:59:00,
2013-02-21 16:04:00,77.8,66.0,30.02,SE,132,4.0,4.0,67,0.00,,,0.00,Wunderground v.1.15,2013-02-21 21:04:00,
2013-02-21 16:14:00,77.7,65.9,30.01,ESE,117,3.0,4.0,67,0.00,,,0.00,Wunderground v.1.15,2013-02-21 21:14:00,
2013-02-21 16:24:00,77.5,66.5,30.01,East,85,3.0,3.0,69,0.00,,,0.00,Wunderground v.1.15,2013-02-21 21:24:00,
2013-02-21 16:34:00,77.2,66.2,30.02,ESE,103,3.0,8.0,69,0.00,,,0.00,Wunderground v.1.15,2013-02-21 21:34:00,
2013-02-21 16:44:00,76.7,66.6,30.02,SSE,150,4.0,4.0,71,0.00,,,0.00,Wunderground v.1.15,2013-02-21 21:44:00,
2013-02-21 16:49:00,76.5,66.8,30.02,ESE,103,4.0,4.0,72,0.00,,,0.00,Wunderground v.1.15,2013-02-21 21:49:00,
2013-02-21 16:59:00,76.0,67.1,30.02,East,98,4.0,5.0,74,0.00,,,0.00,Wunderground v.1.15,2013-02-21 21:59:00,
2013-02-21 17:04:00,75.9,67.0,30.02,South,175,3.0,3.0,74,0.00,,,0.00,Wunderground v.1.15,2013-02-21 22:04:00,
2013-02-21 17:14:00,75.5,67.0,30.02,SSE,148,5.0,5.0,75,0.00,,,0.00,Wunderground v.1.15,2013-02-21 22:14:00,
2013-02-21 17:19:00,75.2,67.1,30.02,SE,146,5.0,5.0,76,0.00,,,0.00,Wunderground v.1.15,2013-02-21 22:19:00,
2013-02-21 17:29:00,74.9,66.8,30.02,SSW,201,5.0,5.0,76,0.00,,,0.00,Wunderground v.1.15,2013-02-21 22:29:00,
2013-02-21 17:39:00,74.5,66.8,30.01,ESE,102,3.0,5.0,77,0.00,,,0.00,Wunderground v.1.15,2013-02-21 22:39:00,
2013-02-21 17:49:00,74.2,66.5,30.01,SE,130,2.0,3.0,77,0.00,,,0.00,Wunderground v.1.15,2013-02-21 22:49:00,
2013-02-21 17:59:00,73.6,66.3,30.01,SE,138,3.0,5.0,78,0.00,,,0.00,Wunderground v.1.15,2013-02-21 22:59:00,
2013-02-21 18:04:00,73.4,66.5,30.01,South,180,3.0,3.0,79,0.00,,,0.00,Wunderground v.1.15,2013-02-21 23:04:00,
2013-02-21 18:14:00,73.0,66.5,30.01,SE,136,3.0,3.0,80,0.00,,,0.00,Wunderground v.1.15,2013-02-21 23:14:00,
2013-02-21 18:19:00,72.8,66.3,30.02,SE,129,2.0,3.0,80,0.00,,,0.00,Wunderground v.1.15,2013-02-21 23:19:00,
2013-02-21 18:29:00,72.5,66.3,30.02,ESE,121,3.0,5.0,81,0.00,,,0.00,Wunderground v.1.15,2013-02-21 23:29:00,
2013-02-21 18:39:00,72.3,66.5,30.02,SE,134,1.0,3.0,82,0.00,,,0.00,Wunderground v.1.15,2013-02-21 23:39:00,
2013-02-21 18:44:00,72.2,66.4,30.03,South,186,1.0,7.0,82,0.00,,,0.00,Wunderground v.1.15,2013-02-21 23:44:00,
2013-02-21 18:54:00,72.0,66.6,30.03,SE,128,1.0,4.0,83,0.00,,,0.00,Wunderground v.1.15,2013-02-21 23:54:00,
2013-02-21 18:59:00,71.9,66.8,30.03,SSE,149,1.0,4.0,84,0.00,,,0.00,Wunderground v.1.15,2013-02-21 23:59:00,
2013-02-21 19:09:00,71.7,66.9,30.03,SSW,201,2.0,2.0,85,0.00,,,0.00,Wunderground v.1.15,2013-02-22 00:09:00,
2013-02-21 19:14:00,71.6,66.8,30.03,ESE,114,2.0,2.0,85,0.00,,,0.00,Wunderground v.1.15,2013-02-22 00:14:00,
2013-02-21 19:19:00,71.5,67.1,30.03,SE,146,2.0,2.0,86,0.00,,,0.00,Wunderground v.1.15,2013-02-22 00:19:00,
2013-02-21 19:24:00,71.4,67.0,30.03,SSE,147,2.0,2.0,86,0.00,,,0.00,Wunderground v.1.15,2013-02-22 00:24:00,
2013-02-21 19:29:00,71.4,67.0,30.03,SE,143,2.0,2.0,86,0.00,,,0.00,Wunderground v.1.15,2013-02-22 00:29:00,
2013-02-21 19:34:00,71.4,67.0,30.03,SE,143,2.0,2.0,86,0.00,,,0.00,Wunderground v.1.15,2013-02-22 00:34:00,
2013-02-21 19:40:00,71.3,66.9,30.03,SSE,152,2.0,5.0,86,0.00,,,0.00,Wunderground v.1.15,2013-02-22 00:40:00,
2013-02-21 19:49:00,71.2,67.1,30.03,SSE,160,3.0,4.0,87,0.00,,,0.00,Wunderground v.1.15,2013-02-22 00:49:00,
2013-02-21 19:59:00,71.1,67.0,30.03,South,170,3.0,3.0,87,0.00,,,0.00,Wunderground v.1.15,2013-02-22 00:59:00,
2013-02-21 20:07:00,71.1,67.0,30.03,SSE,149,3.0,3.0,87,0.00,,,0.00,Wunderground v.1.15,2013-02-22 01:07:00,
2013-02-21 20:12:00,71.0,66.9,30.03,SSE,168,2.0,5.0,87,0.00,,,0.00,Wunderground v.1.15,2013-02-22 01:12:00,
2013-02-21 20:20:00,71.0,67.3,30.03,SE,132,3.0,5.0,88,0.00,,,0.00,Wunderground v.1.15,2013-02-22 01:20:00,
2013-02-21 20:29:00,70.9,67.2,30.04,SSE,147,2.0,5.0,88,0.00,,,0.00,Wunderground v.1.15,2013-02-22 01:29:00,
2013-02-21 20:34:00,70.9,67.2,30.04,SE,138,1.0,1.0,88,0.00,,,0.00,Wunderground v.1.15,2013-02-22 01:34:00,
2013-02-21 20:44:00,70.8,67.1,30.04,ESE,123,1.0,1.0,88,0.00,,,0.00,Wunderground v.1.15,2013-02-22 01:44:00,
2013-02-21 20:49:00,70.8,67.1,30.04,ESE,118,2.0,2.0,88,0.00,,,0.00,Wunderground v.1.15,2013-02-22 01:49:00,
2013-02-21 20:57:00,70.7,67.0,30.04,SE,133,2.0,2.0,88,0.00,,,0.00,Wunderground v.1.15,2013-02-22 01:57:00,
2013-02-21 21:06:00,70.6,66.9,30.04,SSE,147,1.0,4.0,88,0.00,,,0.00,Wunderground v.1.15,2013-02-22 02:06:00,
2013-02-21 21:14:00,70.5,66.8,30.04,ESE,116,1.0,4.0,88,0.00,,,0.00,Wunderground v.1.15,2013-02-22 02:14:00,
2013-02-21 21:24:00,70.4,66.7,30.04,South,173,1.0,2.0,88,0.00,,,0.00,Wunderground v.1.15,2013-02-22 02:24:00,
2013-02-21 21:35:00,70.5,66.8,30.04,SE,134,3.0,3.0,88,0.00,,,0.00,Wunderground v.1.15,2013-02-22 02:35:00,
2013-02-21 21:43:00,70.5,66.8,30.04,SE,138,1.0,6.0,88,0.00,,,0.00,Wunderground v.1.15,2013-02-22 02:43:00,
2013-02-21 21:50:00,70.4,66.7,30.04,SSE,163,1.0,1.0,88,0.00,,,0.00,Wunderground v.1.15,2013-02-22 02:50:00,
2013-02-21 21:56:00,70.5,66.8,30.04,SSE,157,1.0,5.0,88,0.00,,,0.00,Wunderground v.1.15,2013-02-22 02:56:00,
2013-02-21 22:21:00,70.8,66.7,30.04,South,176,2.0,2.0,87,0.00,,,0.00,Wunderground v.1.15,2013-02-22 03:21:00,
2013-02-21 22:30:00,70.7,66.6,30.04,South,171,1.0,2.0,87,0.00,,,0.00,Wunderground v.1.15,2013-02-22 03:30:00,
2013-02-21 22:39:00,70.7,67.0,30.04,South,180,1.0,6.0,88,0.00,,,0.00,Wunderground v.1.15,2013-02-22 03:39:00,
2013-02-21 22:50:00,70.7,67.0,30.04,ESE,119,2.0,4.0,88,0.00,,,0.00,Wunderground v.1.15,2013-02-22 03:50:00,
2013-02-21 23:00:00,70.6,66.9,30.05,South,189,1.0,1.0,88,0.00,,,0.00,Wunderground v.1.15,2013-02-22 04:00:00,
2013-02-21 23:10:00,70.5,67.1,30.05,South,170,1.0,1.0,89,0.00,,,0.00,Wunderground v.1.15,2013-02-22 04:10:00,
2013-02-21 23:19:00,70.4,67.0,30.05,SSW,199,2.0,6.0,89,0.00,,,0.00,Wunderground v.1.15,2013-02-22 04:19:00,
2013-02-21 23:25:00,70.3,66.9,30.05,SSE,160,2.0,2.0,89,0.00,,,0.00,Wunderground v.1.15,2013-02-22 04:25:00,
2013-02-21 23:34:00,70.2,66.8,30.05,South,180,2.0,7.0,89,0.00,,,0.00,Wunderground v.1.15,2013-02-22 04:34:00,
2013-02-21 23:40:00,70.1,66.7,30.05,South,175,2.0,2.0,89,0.00,,,0.00,Wunderground v.1.15,2013-02-22 04:40:00,
2013-02-21 23:49:00,70.0,66.9,30.05,SSE,148,2.0,5.0,90,0.00,,,0.00,Wunderground v.1.15,2013-02-22 04:49:00,
2013-02-21 23:55:00,69.9,66.8,30.05,South,179,2.0,6.0,90,0.00,,,0.00,Wunderground v.1.15,2013-02-22 04:55:00,